Location: Clay (historical)
(35.1476°N, 89.8179°W)
Time: 00:38:18
(UTC+00:00)

USA 229 DEB - Pass Details

Date: 18 February 2026
Orbit: 844 x 1364 km, 63.4° (Epoch: 10 January)

Event Time Altitude Azimuth Distance (km) Brightness Sun altitude
Rises 12:07:37 0° 205° (SSW) 3,399 6.2 -7.7°
Reaches altitude 10° 12:10:00 10° 204° (SSW) 2,490 5.5 -7.2°
Maximum altitude 12:15:42 77° 119° (ESE) 933 3.6 -6.1°
Drops below altitude 10° 12:22:02 10° 34° (NE) 2,747 6.2 -4.8°
Sets 12:24:46 0° 33° (NNE) 3,776 6.9 -4.3°
